User: anonymous   Login
Location: Irma
(52.9170°N, 111.2330°W)
Time: 14:39:14
(UTC-06:00)
Language:

Meteor 1-24 Rocket - Orbit

View from above orbital plane
View from above orbital plane
View from above satellite
View from above satellite

Ground track
Ground track

The orbit data is extracted from the following two-line orbital elements,

1 08800U 76032B   14297.98776051 -.00000042  00000-0 -30250-4 0  1499
2 08800 081.2509 077.2063 0094880 040.7350 098.5893 14.09975881982021
Epoch (UTC): 24 October 2014 23:42:22
Eccentricity: 0.0094880
inclination: 81.2509°
perigee height: 791 km
apogee height: 928 km
right ascension of ascending node: 77.2063°
argument of perigee: 40.7350°
revolutions per day: 14.09975881
mean anomaly at epoch: 98.5893°
orbit number at epoch: 98202

The dashed part of the orbit path shows where the satellite is in the earth's shadow,  

DLR